AirNav   Everest Fuels
 
 412 users online  

N72 Warwick Municipal Airport
Warwick, New York, USA

GOING TO WARWICK?


FAA INFORMATION EFFECTIVE 17 JUNE 2021

Location

FAA Identifier: N72
Lat/Long: 41-17-15.3370N 074-17-13.5410W
41-17.255617N 074-17.225683W
41.2875936,-74.2870947
(estimated)
Elevation: 540 ft. / 164.6 m (surveyed)
Variation: 13W (1985)
From city: 3 miles NE of WARWICK, NY
Time zone: UTC -4 (UTC -5 during Standard Time)
Zip code: 10990

Airport Operations

Airport use: Open to the public
Activation date: 01/1940
Control tower: no
ARTCC: NEW YORK CENTER
FSS: NEW YORK FLIGHT SERVICE STATION
NOTAMs facility: ISP (NOTAM-D service available)
Attendance: IREG
Wind indicator: yes
Segmented circle: no
Lights: ACTVT LIRL RWY 03R/21L - CTAF.

Airport Communications

CTAF/UNICOM: 123.0
WX ASOS at MGJ (13 nm N): 119.275 (845-457-1486)
WX ASOS at FWN (16 nm W): 118.525 (973-875-0859)

Nearby radio navigation aids

VOR radial/distance  VOR name  Freq  Var
HUOr129/15.5HUGUENOT VOR/DME116.1011W
SAXr052/17.4SPARTA VORTAC115.7011W
TEBr350/28.2TETERBORO VOR/DME108.4011W
IGNr235/30.8KINGSTON VOR/DME117.6012W
STWr067/31.6STILLWATER VOR/DME109.6011W
CMKr283/31.8CARMEL VOR/DME116.6012W
LGAr340/35.7LA GUARDIA VOR/DME113.1012W
BWZr051/38.0BROADWAY VOR/DME114.2011W

 
NDB name  Hdg/Dist  Freq  Var  ID
NEELY207/12.233514WSW ... .--
STANWYCK229/18.126112WSKU ... -.- ..-
CHATHAM024/33.425413WCAT -.-. .- -

Airport Services

Fuel available: 100LL
100LL:SELF SVC FUEL AVBL.
Parking: tiedowns
Airframe service: NONE
Powerplant service: NONE
Bottled oxygen: NONE
Bulk oxygen: NONE

Runway Information

Runway 3R/21L

Dimensions: 2150 x 28 ft. / 655 x 9 m
Surface: asphalt, in good condition
Runway edge lights: non-standard
RWY 03R/21L NSTD LIRL HAS SPACING 400 FT APART.
RUNWAY 3R  RUNWAY 21L
Traffic pattern: leftleft
Markings: numbers only, in good conditionnumbers only, in good condition
Runway end identifier lights: nono
Obstructions: 93 ft. tree, 1249 ft. from runway, 65 ft. right of centerline, 11:1 slope to clear68 ft. trees, 783 ft. from runway, 8:1 slope to clear
RWY 21L 36 FT TREES 176 FT FM THR 71 FT LEFT.

Runway 8/26

Dimensions: 2250 x 80 ft. / 686 x 24 m
Surface: turf, in good condition
RUNWAY 8  RUNWAY 26
Traffic pattern: leftleft
Runway end identifier lights: nono
Obstructions: 51 ft. tree, 86 ft. from runway, 48 ft. left of centerline48 ft. tree, 26 ft. from runway, 103 ft. right of centerline

Runway 3L/21R

Dimensions: 2100 x 50 ft. / 640 x 15 m
Surface: turf, in good condition
RUNWAY 3L  RUNWAY 21R
Traffic pattern: leftleft
Obstructions: 68 ft. trees, 117 ft. left of centerline56 ft. trees, 38 ft. from runway, 54 ft. right of centerline

Airport Ownership and Management from official FAA records

Ownership: Publicly-owned
Owner: TOWN OF WARWICK
BOX 489
WARWICK, NY 10990
Phone 845-986-9544
Manager: JEFF WALKER
41 AIRPORT RD
WARWICK, NY 10990
Phone 845-258-0183

Airport Operational Statistics

Aircraft based on the field: 40
Single engine airplanes: 40
    
Aircraft operations: avg 86/week *
83% local general aviation
17% transient general aviation
* for 12-month period ending 18 August 2020

Additional Remarks

ARPT CLSD TO TSNT ACFT SS-SR.
PRACTICE LDGS NA.
MTS & TWRS IN CLOSE VCNTY OF ARPT.
RWY 08 HAS 6 FT CHAIN LINK FENCE, 58 FT LEFT, PARLTO RWY.
FOR CD CTC NEW YORK APCH AT 516-683-2448.
DEER AND BIRD ACT NEAR MOVEMENT AREAS.
SEAPLANE USE OF WICKHAM LAKE PROHIBITED.

Instrument Procedures

There are no published instrument procedures at N72.

Some nearby airports with instrument procedures:

06N - Randall Airport (10 nm NW)
4N1 - Greenwood Lake Airport (10 nm S)
KMGJ - Orange County Airport (13 nm N)
KSWF - New York Stewart International Airport (15 nm NE)
KFWN - Sussex Airport (16 nm W)
 
Loc | Ops | Rwys | IFR | FBO | Links
Com | Nav | Svcs | Stats | Notes
Area around N72 (Warwick Municipal Airport)
 
Road maps at: MapQuest Bing Google
 
Aerial photo
WARNING: Photo may not be current or correct
Aerial photo of N72 (Warwick Municipal Airport)
Photo taken 17-Aug-2011
looking southwest.

Do you have a better or more recent aerial photo of Warwick Municipal Airport that you would like to share? If so, please send us your photo.

 
Sectional chart

 
Airport distance calculator
Flying to Warwick Municipal Airport? Find the distance to fly.

From to N72

Sunrise and sunset
Times for 17-Jun-2021
 Local
(UTC-4)
 Zulu
(UTC)
Morning civil twilight04:5108:51
Sunrise05:2409:24
Sunset20:3200:32
Evening civil twilight21:0501:05

Current date and time
Zulu (UTC)  17-Jun-2021 07:07:37
Local (UTC-4)  17-Jun-2021 03:07:37
 
METAR
KMGJ 
14nm N 
SuperAWOS
170654Z AUTO 21003KT 10SM CLR 07/05 A2996 RMK AO2 SLP146 T00670050
KSWF 
16nm NE 
170645Z 00000KT 10SM SKC 12/04 A2997
KFWN 
16nm W 
170653Z AUTO 00000KT 10SM CLR 08/06 A2998 RMK AO2 SLP150 T00780061
KCDW 
24nm S 
170653Z AUTO 00000KT 10SM CLR 12/06 A2997 RMK AO2 SLP154 T01220061
K12N 
26nm SW 
170654Z AUTO 19003KT 09/08 A2999 RMK AO1 SLP151 T00890078
KTEB 
27nm SE 
170651Z 35003KT 10SM CLR 14/04 A2996 RMK AO2 SLP143 T01390039 $
TAF
KSWF 
16nm NE 
170534Z 1706/1812 VRB03KT P6SM FEW250 FM171500 VRB03KT P6SM SKC AMD NOT SKED
NOTAMs
Click for the latest NOTAMs
NOTAMs are issued by the DoD/FAA and will open in a separate window not controlled by AirNav.

 

 
 

FBO, Fuel Providers, and Aircraft Ground Support

  
 Business Name 
 
 Contact 
 
 Services / Description 
 
Fuel Prices
 
Comments
  
Warwick Municipal Airport 845-986-9544
no information available

If you are affiliated with Warwick Municipal Airport and would like to show here your services, contact info, web link, logo, and more, click here
100LL
SS $5.00 
 Updated 04-May-2021
 
   write
SS=Self service
Update Fuel Prices
 

Would you like to see your business listed on this page?

 If your business provides an interesting product or service to pilots, flight crews, aircraft, or users of the Warwick Municipal Airport, you should consider listing it here.  To start the listing process, click on the button below
 
Add a business
 

Other Pages about Warwick Municipal Airport

www.warwickairport.com
 
Update a link
 
Copyright © AirNav, LLC. All rights reserved. Privacy Policy  Contact